Location: Neuvy Saint Sepulchre
(46.5953°N, 1.8122°E)
Time: 05:41:36
(UTC+01:00)

ISS - Pass Details

Date: 24 November 2023
Orbit: 416 x 417 km, 51.6° (Epoch: 01 December)

Event Time Altitude Azimuth Distance (km) Brightness Sun altitude
Rises 19:01:15 0° 277° (W) 2,359 1.4 -18.5°
Reaches altitude 10° 19:03:28 10° 287° (WNW) 1,497 0.0 -18.8°
Maximum altitude 19:06:34 34° 355° (N) 714 -2.7 -19.4°
Enters shadow 19:06:40 34° 359° (N) 716 -2.7 -19.4°
